N9XRG Weather Reports


time (UTC)temp
F
wind
direction
speed
knots
gust
knots
rain 1hr
in
rain 24hr
in
rain mn
in
humidity
%
barometer
mb
20260903011129 80 89 0.0 1.7 0.00 0.00 0.00 89 1014.5
20260903010624 80 141 0.0 1.7 0.00 0.00 0.00 90 1014.3
20260903010123 80 119 0.0 0.9 0.00 0.00 0.00 90 1014.3
20260903005618 80 117 0.0 0.9 0.00 0.00 0.00 89 1014.2
20260903005114 80 116 0.9 1.7 0.00 0.00 0.00 89 1014.0
20260903004613 80 142 0.0 0.9 0.00 0.00 0.00 88 1014.1
20260903004108 80 63 0.9 1.7 0.00 0.00 0.00 88 1014.1
20260903003604 80 37 0.0 0.9 0.00 0.00 0.00 89 1014.1
20260903003059 80 124 0.0 0.9 0.00 0.00 0.00 89 1014.0
20260903002554 81 129 0.0 0.9 0.00 0.00 0.00 89 1014.1
20260903002048 81 104 0.0 1.7 0.00 0.00 0.00 89 1014.2
20260903001543 81 104 0.0 0.0 0.00 0.00 0.00 89 1014.1
20260903001043 82 113 0.0 0.9 0.00 0.00 0.00 89 1014.2
20260903000538 82 121 0.0 0.9 0.00 0.00 0.00 88 1014.1
20260903000032 82 62 0.0 0.0 0.00 0.00 0.00 87 1014.2
20260902235531 83 62 0.0 0.0 0.00 0.00 0.00 87 1014.2
20260902235027 83 66 0.0 0.0 0.00 0.00 0.00 86 1014.1
20260902234526 84 93 0.0 0.0 0.00 0.00 0.00 85 1014.1
20260902234025 84 62 0.0 0.9 0.00 0.00 0.00 84 1014.3
20260902233520 85 113 0.0 0.9 0.00 0.00 0.00 83 1014.3
20260902233014 85 64 0.0 0.9 0.00 0.00 0.00 81 1014.3
20260902232514 86 117 0.0 0.9 0.00 0.00 0.00 79 1014.1
20260902232008 87 62 0.0 0.9 0.00 0.00 0.00 77 1014.1
20260902231504 87 107 0.0 1.7 0.00 0.00 0.00 75 1014.3
20260902230958 88 89 0.0 0.9 0.00 0.00 0.00 73 1014.4
20260902230458 88 93 0.0 0.9 0.00 0.00 0.00 72 1014.4
20260902225956 88 111 0.9 1.7 0.00 0.00 0.00 72 1014.1
20260902225452 89 148 1.7 1.7 0.00 0.00 0.00 71 1014.3
20260902224951 89 124 0.0 1.7 0.00 0.00 0.00 71 1014.3
20260902224450 89 129 0.0 0.0 0.00 0.00 0.00 70 1014.1
20260902223948 89 143 0.0 1.7 0.00 0.00 0.00 69 1014.3
20260902223443 90 150 1.7 2.6 0.00 0.00 0.00 68 1014.1
20260902222942 90 135 0.9 1.7 0.00 0.00 0.00 68 1014.1
20260902222441 90 125 0.9 1.7 0.00 0.00 0.00 68 1014.4
20260902221940 90 138 1.7 2.6 0.00 0.00 0.00 67 1014.2
20260902221439 90 152 0.9 5.2 0.00 0.00 0.00 68 1014.2
20260902220935 91 141 2.6 2.6 0.00 0.00 0.00 67 1014.2
20260902220435 91 140 0.9 2.6 0.00 0.00 0.00 66 1014.3
20260902215930 91 112 0.0 1.7 0.00 0.00 0.00 67 1013.9
20260902215426 91 114 1.7 2.6 0.00 0.00 0.00 66 1014.4
20260902214916 91 154 1.7 3.5 0.00 0.00 0.00 65 1014.3
20260902214415 91 226 1.7 3.5 0.00 0.00 0.00 65 1014.1
20260902213915 91 153 0.0 1.7 0.00 0.00 0.00 65 1014.2
20260902213411 92 156 0.0 2.6 0.00 0.00 0.00 64 1014.4
20260902212909 92 145 0.9 2.6 0.00 0.00 0.00 64 1014.3
20260902212406 92 119 1.7 1.7 0.00 0.00 0.00 64 1014.3
20260902211902 92 125 1.7 2.6 0.00 0.00 0.00 64 1014.3
20260902211358 92 139 0.0 2.6 0.00 0.00 0.00 65 1014.4
20260902210853 92 111 1.7 4.3 0.00 0.00 0.00 63 1014.3
20260902210352 93 144 1.7 3.5 0.00 0.00 0.00 63 1014.2
20260902205851 93 111 0.9 1.7 0.00 0.00 0.00 63 1014.5
20260902205346 93 118 0.9 3.5 0.00 0.00 0.00 62 1014.6
20260902204842 94 71 1.7 3.5 0.00 0.00 0.00 61 1014.4
20260902204341 94 161 1.7 1.7 0.00 0.00 0.00 61 1014.4
20260902203837 94 34 0.9 3.5 0.00 0.00 0.00 59 1014.5
20260902203332 94 117 1.7 3.5 0.00 0.00 0.00 60 1014.4
20260902202831 95 174 2.6 4.3 0.00 0.00 0.00 57 1014.5
20260902202328 95 133 3.5 4.3 0.00 0.00 0.00 58 1014.5
20260902201824 95 132 1.7 2.6 0.00 0.00 0.00 60 1014.7
20260902201324 95 114 0.9 3.5 0.00 0.00 0.00 63 1014.5
20260902200819 94 120 0.9 1.7 0.00 0.00 0.00 61 1014.6
20260902200314 94 116 1.7 4.3 0.00 0.00 0.00 59 1014.6
20260902195810 95 217 0.0 2.6 0.00 0.00 0.00 58 1014.7
20260902195309 95 181 1.7 2.6 0.00 0.00 0.00 60 1014.7
20260902194804 94 183 1.7 3.5 0.00 0.00 0.00 58 1014.8
20260902194258 95 192 3.5 5.2 0.00 0.00 0.00 57 1014.7
20260902193754 95 156 1.7 3.5 0.00 0.00 0.00 58 1014.9
20260902193250 95 120 0.9 4.3 0.00 0.00 0.00 57 1015.0
20260902192748 96 124 1.7 2.6 0.00 0.00 0.00 59 1014.9
20260902192247 95 113 0.0 3.5 0.00 0.00 0.00 59 1015.1
20260902191747 94 97 0.9 3.5 0.00 0.00 0.00 62 1015.0
20260902191242 94 83 1.7 5.2 0.00 0.00 0.00 61 1015.0
20260902190737 94 186 1.7 3.5 0.00 0.00 0.00 59 1015.0
20260902190237 94 117 1.7 6.1 0.00 0.00 0.00 59 1015.0
20260902185733 94 153 1.7 5.2 0.00 0.00 0.00 59 1015.2
20260902185228 94 146 0.0 3.5 0.00 0.00 0.00 60 1015.2
20260902184724 94 161 1.7 2.6 0.00 0.00 0.00 61 1015.0
20260902184219 94 156 0.9 3.5 0.00 0.00 0.00 62 1015.0
20260902183715 94 6 1.7 3.5 0.00 0.00 0.00 59 1015.0
20260902183211 94 145 0.0 4.3 0.00 0.00 0.00 59 1015.2
20260902182707 94 148 0.9 5.2 0.00 0.00 0.00 62 1015.0
20260902182203 94 174 0.9 3.5 0.00 0.00 0.00 60 1015.1
20260902181659 94 180 1.7 3.5 0.00 0.00 0.00 61 1015.4
20260902181200 93 102 0.0 4.3 0.00 0.00 0.00 63 1015.3
20260902180659 93 195 2.6 3.5 0.00 0.00 0.00 60 1015.5
20260902180155 93 116 0.0 3.5 0.00 0.00 0.00 63 1015.6
20260902175655 94 170 2.6 4.3 0.00 0.00 0.00 59 1015.8
20260902175151 94 114 0.9 2.6 0.00 0.00 0.00 61 1015.7
20260902174647 94 139 0.0 1.7 0.00 0.00 0.00 61 1015.7
20260902174143 94 153 1.7 2.6 0.00 0.00 0.00 59 1015.6
20260902173638 94 148 0.9 1.7 0.00 0.00 0.00 63 1015.7
20260902173133 93 96 1.7 1.7 0.00 0.00 0.00 64 1015.9
20260902172627 93 166 0.9 3.5 0.00 0.00 0.00 62 1016.2
20260902172126 93 133 1.7 3.5 0.00 0.00 0.00 61 1016.0
20260902171622 93 58 1.7 3.5 0.00 0.00 0.00 60 1016.0
20260902171118 93 169 1.7 2.6 0.00 0.00 0.00 60 1016.4
20260902170613 93 173 3.5 3.5 0.00 0.00 0.00 61 1015.8
20260902170109 93 188 1.7 2.6 0.00 0.00 0.00 60 1015.9
20260902165608 93 50 0.9 2.6 0.00 0.00 0.00 63 1016.1
20260902165103 92 134 1.7 3.5 0.00 0.00 0.00 64 1016.2
20260902164558 92 97 1.7 1.7 0.00 0.00 0.00 66 1016.3
20260902164056 92 217 0.9 4.3 0.00 0.00 0.00 62 1016.1
20260902163553 92 189 1.7 2.6 0.00 0.00 0.00 63 1016.3
20260902163051 92 158 1.7 1.7 0.00 0.00 0.00 65 1016.1
20260902162545 91 150 0.9 4.3 0.00 0.00 0.00 64 1016.3
20260902162040 92 154 2.6 4.3 0.00 0.00 0.00 63 1016.5
20260902161540 92 146 2.6 3.5 0.00 0.00 0.00 63 1016.6
20260902161036 92 131 1.7 1.7 0.00 0.00 0.00 63 1016.6
20260902160532 92 136 0.0 4.3 0.00 0.00 0.00 64 1016.5
20260902160027 91 127 1.7 1.7 0.00 0.00 0.00 66 1016.5
20260902155520 92 107 0.9 2.6 0.00 0.00 0.00 64 1016.5
20260902155019 91 124 2.6 2.6 0.00 0.00 0.00 65 1016.4
20260902154514 91 132 1.7 3.5 0.00 0.00 0.00 65 1016.5
20260902154009 91 111 0.0 2.6 0.00 0.00 0.00 65 1016.5
20260902153507 91 149 2.6 3.5 0.00 0.00 0.00 63 1016.6
20260902153003 91 185 0.0 1.7 0.00 0.00 0.00 64 1016.6
20260902152500 90 132 0.9 3.5 0.00 0.00 0.00 66 1016.6
20260902151954 90 89 0.0 2.6 0.00 0.00 0.00 67 1016.5
20260902151451 90 120 1.7 1.7 0.00 0.00 0.00 65 1016.6
20260902150950 90 208 0.0 3.5 0.00 0.00 0.00 65 1016.7
20260902150446 90 124 0.9 2.6 0.00 0.00 0.00 66 1016.3
20260902145946 89 87 1.7 3.5 0.00 0.00 0.00 67 1016.6
20260902145441 89 147 0.9 2.6 0.00 0.00 0.00 67 1016.7
20260902144935 89 152 0.0 2.6 0.00 0.00 0.00 67 1016.4
20260902144432 89 119 1.7 2.6 0.00 0.00 0.00 66 1016.5
20260902143932 89 104 0.0 1.7 0.00 0.00 0.00 67 1016.5
20260902143427 88 115 0.9 1.7 0.00 0.00 0.00 69 1016.5
20260902142922 86 99 0.9 1.7 0.00 0.00 0.00 71 1016.3
20260902142418 85 138 1.7 5.2 0.00 0.00 0.00 73 1016.5
20260902141914 84 114 1.7 2.6 0.00 0.00 0.00 74 1016.4
20260902141409 84 133 1.7 1.7 0.00 0.00 0.00 75 1016.3
20260902140908 83 122 1.7 4.3 0.00 0.00 0.00 76 1016.5
20260902140404 83 134 0.9 2.6 0.00 0.00 0.00 76 1016.3
20260902135904 82 42 0.9 1.7 0.00 0.00 0.00 79 1016.4
20260902135400 82 128 1.7 1.7 0.00 0.00 0.00 77 1016.4
20260902134858 82 148 0.0 2.6 0.00 0.00 0.00 78 1016.6
20260902134358 81 109 1.7 1.7 0.00 0.00 0.00 80 1016.5
20260902133855 81 4 0.0 1.7 0.00 0.00 0.00 81 1016.5
20260902133354 80 129 1.7 3.5 0.00 0.00 0.00 81 1016.7
20260902132849 80 117 0.9 3.5 0.00 0.00 0.00 82 1016.7
20260902132344 80 87 0.9 1.7 0.00 0.00 0.00 81 1017.0
20260902131840 80 118 0.0 1.7 0.00 0.00 0.00 82 1016.7
20260902131337 80 150 2.6 2.6 0.00 0.00 0.00 80 1016.8
20260902130836 80 122 1.7 2.6 0.00 0.00 0.00 80 1016.8
20260902130332 80 138 0.9 2.6 0.00 0.00 0.00 81 1016.9
20260902125827 80 207 1.7 2.6 0.00 0.00 0.00 82 1017.1
20260902125323 78 93 0.9 0.9 0.00 0.00 0.00 86 1017.1
20260902124819 76 128 1.7 3.5 0.00 0.00 0.00 88 1016.9
20260902124315 75 115 1.7 1.7 0.00 0.00 0.00 92 1016.9
20260902123809 74 112 1.7 2.6 0.00 0.00 0.00 94 1017.0
20260902123306 73 102 0.9 1.7 0.00 0.00 0.00 96 1017.0
20260902122804 73 112 1.7 1.7 0.00 0.00 0.00 97 1016.9
20260902122301 73 103 0.0 1.7 0.00 0.00 0.00 97 1017.0
20260902121800 73 119 0.9 1.7 0.00 0.00 0.00 97 1016.9
20260902121255 72 133 1.7 2.6 0.00 0.00 0.00 98 1016.7
20260902120751 72 105 0.9 1.7 0.00 0.00 0.00 98 1016.7
20260902120247 72 101 1.7 1.7 0.00 0.00 0.00 98 1016.8
20260902115747 72 99 0.9 1.7 0.00 0.00 0.00 98 1017.0
20260902115244 72 115 0.9 1.7 0.00 0.00 0.00 98 1017.0
20260902114739 72 142 1.7 3.5 0.00 0.00 0.00 98 1016.8
20260902114236 72 180 0.0 1.7 0.00 0.00 0.00 98 1017.0
20260902113735 72 114 0.9 1.7 0.00 0.00 0.00 98 1017.0
20260902113231 72 131 1.7 1.7 0.00 0.00 0.00 98 1016.8
20260902112730 72 145 0.9 1.7 0.00 0.00 0.00 98 1016.8
20260902112228 72 152 0.9 1.7 0.00 0.00 0.00 98 1016.7
20260902111722 71 105 0.0 1.7 0.00 0.00 0.00 98 1016.8
20260902111219 72 117 0.0 1.7 0.00 0.00 0.00 98 1016.7
20260902110714 71 91 0.0 1.7 0.00 0.00 0.00 97 1016.6
20260902110210 72 74 0.9 1.7 0.00 0.00 0.00 97 1016.6
20260902105709 72 76 0.9 1.7 0.00 0.00 0.00 97 1016.3
20260902105205 72 133 0.0 1.7 0.00 0.00 0.00 97 1016.6
20260902104700 72 100 0.0 1.7 0.00 0.00 0.00 97 1016.4
20260902104156 72 98 1.7 1.7 0.00 0.00 0.00 97 1016.4
20260902103655 72 127 1.7 1.7 0.00 0.00 0.00 97 1016.5
20260902103150 72 58 0.9 1.7 0.00 0.00 0.00 97 1016.4
20260902102646 72 113 0.0 1.7 0.00 0.00 0.00 97 1016.2
20260902102143 72 117 0.0 1.7 0.00 0.00 0.00 97 1016.2
20260902101638 72 89 0.0 1.7 0.00 0.00 0.00 97 1016.4
20260902101138 72 103 0.0 0.9 0.00 0.00 0.00 97 1016.3
20260902100632 72 91 0.9 1.7 0.00 0.00 0.00 97 1016.2
20260902100127 72 93 0.9 1.7 0.00 0.00 0.00 97 1016.2
20260902095626 72 97 0.0 1.7 0.00 0.00 0.00 97 1015.9
20260902095126 72 94 0.0 1.7 0.00 0.00 0.00 97 1016.0
20260902094621 73 85 0.9 1.7 0.00 0.00 0.00 97 1016.1
20260902094118 73 117 0.0 0.9 0.00 0.00 0.00 97 1016.0
20260902093617 73 130 0.0 1.7 0.00 0.00 0.00 97 1015.6
20260902093113 73 67 0.0 0.9 0.00 0.00 0.00 97 1016.0
20260902092613 73 92 0.0 1.7 0.00 0.00 0.00 97 1016.0
20260902092108 73 123 0.0 0.9 0.00 0.00 0.00 97 1015.9
20260902091603 72 135 0.0 1.7 0.00 0.00 0.00 97 1016.0
20260902091059 73 98 0.9 0.9 0.00 0.00 0.00 97 1016.0
20260902090555 73 96 0.0 1.7 0.00 0.00 0.00 97 1016.2
20260902090054 73 149 1.7 1.7 0.00 0.00 0.00 97 1015.9
20260902085553 73 89 0.9 1.7 0.00 0.00 0.00 97 1015.8
20260902085048 73 80 0.0 0.9 0.00 0.00 0.00 97 1016.0
20260902084545 73 129 0.9 1.7 0.00 0.00 0.00 97 1016.0
20260902084041 73 69 0.0 1.7 0.00 0.00 0.00 96 1016.1
20260902083531 74 89 0.9 0.9 0.00 0.00 0.00 97 1015.9
20260902083030 74 101 0.9 1.7 0.00 0.00 0.00 96 1016.0
20260902082526 74 100 0.9 0.9 0.00 0.00 0.00 97 1016.0
20260902082022 74 121 0.9 1.7 0.00 0.00 0.00 96 1016.1
20260902081519 74 94 0.0 1.7 0.00 0.00 0.00 96 1016.1
20260902081018 74 122 0.0 1.7 0.00 0.00 0.00 96 1015.8
20260902080514 74 106 0.9 1.7 0.00 0.00 0.00 96 1016.0
20260902080010 74 100 0.9 1.7 0.00 0.00 0.00 96 1016.0
20260902075504 74 120 0.0 1.7 0.00 0.00 0.00 96 1016.0
20260902075000 74 113 0.9 1.7 0.00 0.00 0.00 96 1015.7
20260902074455 74 77 0.9 1.7 0.00 0.00 0.00 96 1016.0
20260902073949 74 95 0.0 0.9 0.00 0.00 0.00 96 1015.9
20260902073445 75 89 0.0 0.9 0.00 0.00 0.00 96 1015.9
20260902072942 75 111 0.9 1.7 0.00 0.00 0.00 96 1015.8
20260902072437 75 136 1.7 1.7 0.00 0.00 0.00 96 1015.9
20260902071933 75 103 0.0 0.9 0.00 0.00 0.00 96 1015.8
20260902071433 75 118 0.9 1.7 0.00 0.00 0.00 96 1015.7
20260902070929 75 15 0.0 1.7 0.00 0.00 0.00 96 1015.9
20260902070425 75 124 0.0 1.7 0.00 0.00 0.00 96 1015.9
20260902065924 75 117 0.0 1.7 0.00 0.00 0.00 96 1015.9
20260902065419 75 118 0.9 1.7 0.00 0.00 0.00 96 1015.6
20260902064914 75 111 1.7 1.7 0.00 0.00 0.00 96 1016.0
20260902064409 75 136 0.9 0.9 0.00 0.00 0.00 96 1015.8
20260902063905 75 120 0.0 1.7 0.00 0.00 0.00 96 1015.8
20260902063405 75 116 0.9 1.7 0.00 0.00 0.00 96 1015.8
20260902062900 75 113 0.0 1.7 0.00 0.00 0.00 96 1015.8
20260902062359 75 129 0.0 0.9 0.00 0.00 0.00 96 1015.6
20260902061858 75 140 0.0 0.9 0.00 0.00 0.00 95 1015.8
20260902061354 76 140 0.9 0.9 0.00 0.00 0.00 96 1015.6
20260902060850 76 71 0.9 1.7 0.00 0.00 0.00 96 1015.8
20260902060345 76 113 0.9 0.9 0.00 0.00 0.00 96 1015.9
20260902055841 76 135 0.0 0.9 0.00 0.00 0.00 95 1015.9
20260902055337 76 103 0.0 1.7 0.00 0.00 0.00 95 1016.0
20260902054832 76 112 0.9 1.7 0.00 0.00 0.00 95 1015.9
20260902054328 76 101 0.0 1.7 0.00 0.00 0.00 95 1015.9
20260902053823 76 153 0.9 1.7 0.00 0.00 0.00 95 1015.9
20260902053318 76 121 0.9 1.7 0.00 0.00 0.00 94 1015.7
20260902052817 76 130 0.0 0.9 0.00 0.00 0.00 94 1015.9
20260902052313 77 123 0.9 0.9 0.00 0.00 0.00 94 1015.8
20260902051809 77 106 0.9 0.9 0.00 0.00 0.00 94 1015.8
20260902051307 77 136 0.0 0.9 0.00 0.00 0.00 94 1016.2
20260902050803 77 120 0.9 0.9 0.00 0.00 0.00 94 1015.9
20260902050303 77 57 0.0 1.7 0.00 0.00 0.00 94 1016.0
20260902045802 77 131 0.0 0.9 0.00 0.00 0.00 94 1015.8
20260902045258 77 122 0.0 1.7 0.00 0.00 0.00 94 1015.9
20260902044755 77 108 0.9 0.9 0.00 0.00 0.00 93 1015.9
20260902044249 77 123 0.0 0.9 0.00 0.00 0.00 93 1015.8
20260902043744 77 116 0.0 1.7 0.00 0.00 0.00 94 1015.8
20260902043240 77 127 0.0 1.7 0.00 0.00 0.00 94 1015.8
20260902042740 77 116 0.0 1.7 0.00 0.00 0.00 95 1015.7
20260902042240 77 110 1.7 1.7 0.00 0.00 0.00 95 1015.9
20260902041736 77 116 0.9 1.7 0.00 0.00 0.00 96 1015.8
20260902041235 77 103 0.9 1.7 0.00 0.00 0.00 97 1015.9
20260902040734 77 109 1.7 1.7 0.00 0.00 0.00 97 1015.7
20260902040230 77 114 0.9 1.7 0.00 0.00 0.00 97 1015.7
20260902035728 77 144 0.0 0.9 0.00 0.02 0.02 97 1015.8
20260902035224 77 117 0.0 1.7 0.00 0.02 0.02 97 1015.7
20260902034723 77 127 0.9 1.7 0.00 0.02 0.02 97 1015.8
20260902034218 76 95 0.9 0.9 0.00 0.02 0.02 97 1015.7
20260902033716 76 122 0.9 0.9 0.00 0.02 0.02 97 1015.7
20260902033212 76 112 0.9 0.9 0.00 0.02 0.02 97 1015.8
20260902032710 76 113 0.9 0.9 0.00 0.02 0.02 97 1015.7
20260902032206 76 77 0.0 0.9 0.00 0.02 0.02 97 1015.5
20260902031706 76 117 0.9 0.9 0.00 0.02 0.02 97 1015.9
20260902031201 76 114 0.0 0.9 0.00 0.02 0.02 97 1015.7
20260902030657 77 101 0.9 0.9 0.00 0.02 0.02 97 1015.8
20260902030156 77 124 0.9 1.7 0.00 0.02 0.02 97 1015.5
20260902025655 77 119 0.0 0.9 0.00 0.02 0.02 97 1015.7
20260902025151 77 104 0.9 0.9 0.00 0.02 0.02 97 1015.5
20260902024646 77 120 0.0 0.9 0.00 0.02 0.02 97 1015.6
20260902024141 77 118 0.0 0.9 0.00 0.02 0.02 97 1015.9
20260902023638 77 124 0.0 0.9 0.00 0.02 0.02 97 1015.7
20260902023137 77 95 0.0 0.9 0.00 0.02 0.02 97 1015.8
20260902022637 77 124 0.0 0.9 0.00 0.02 0.02 97 1015.7
20260902022133 77 120 0.0 0.9 0.00 0.02 0.02 97 1015.7
20260902021628 77 95 0.0 0.9 0.00 0.02 0.02 96 1015.7
20260902021128 77 112 0.9 0.9 0.00 0.02 0.02 97 1015.9
20260902020624 77 116 0.0 0.9 0.00 0.02 0.02 96 1015.8
20260902020120 77 75 0.0 0.0 0.00 0.02 0.02 96 1015.8
20260902015615 77 129 0.0 0.9 0.00 0.02 0.02 96 1015.8
20260902015111 77 117 0.0 0.9 0.00 0.02 0.02 96 1015.7
20260902014607 77 89 0.0 0.9 0.00 0.02 0.02 96 1015.8
20260902014102 78 104 0.0 0.9 0.00 0.02 0.02 96 1015.9
20260902013601 78 91 0.9 0.9 0.00 0.02 0.02 96 1015.6
20260902013057 78 55 0.0 0.9 0.00 0.02 0.02 96 1015.8
20260902012554 78 89 0.0 0.9 0.00 0.02 0.02 95 1015.6
20260902012054 78 113 0.0 0.9 0.00 0.02 0.02 95 1015.6
20260902011549 78 89 0.0 0.9 0.00 0.02 0.02 95 1015.5